Weather in Marina-di-Bibbona

Italy     43°14′43″N   10°32′00″E
temp.,
°C
wind,
m/s
gust,
m/s
humid.,
%
clouds,
%
prec.,
mm/h
press.,
hPa
HPBL,
m
10 may, mon
mon1023:00+16ese347771 0.0 101777
02:00+15e337838 0.0 101766
05:00+15ese48795 0.0 1016234
08:00+17e25705 0.0 1017223
11:00+20sse610561 0.0 1016526
14:00+21s812545 0.0 1015614
17:00+20s81359100 0.0 1014566
20:00+19sse5963100 0.0 1014280
11 may, tue
tue1123:00+17se467087 0.0 1015161
02:00+15ene23745 0.0 101459
05:00+14e3678100 0.0 1012141
08:00+15sse51185100 2.1 1011617
11:00+16wsw4597100 16.9 1012298
14:00+14nw5695100 28.3 1011434
17:00+14nw2394100 11.5 1010276
20:00+13ene2294100 16.7 1010206
12 may, wed
wed1223:00+13ssw1286100 0.4 1009111
02:00+14ssw3488100 0.4 1009293
05:00+14s348666 0.2 1008351
08:00+15wsw578220 0.5 1008804
11:00+16w897625 0.8 10091026
14:00+16w11147210 0.8 10091091
17:00+16w1114630 0.0 10091137
20:00+16w915681 0.0 1008735
13 may, thu
thu1323:00+15ssw588084 0.1 1009344
02:00+15s46815 0.3 1008242
05:00+12ese33821 0.1 100787
08:00+14ese22706 0.1 1007137
11:00+16sw346127 0.0 1007613
14:00+16sw2363100 0.0 1007686
17:00+16w91065100 0.0 10081175
20:00+15w9126886 0.0 1007732
14 may, fri
fri1423:00+15w6116346 0.0 1008610
02:00+16wsw596565 0.0 1009719
05:00+15wsw476888 0.0 1009706
08:00+14se3470100 0.0 1010182
11:00+16s565997 0.0 1012699
14:00+18ssw566378 0.0 1012884
17:00+17ssw5665100 0.1 1012796
20:00+16sse577993 0.1 1011688